Regional Weather Roundup
Issued by NWS Sioux Falls, SD

Home | Current Version | Previous Version | Text Only | Print | Product List | Glossary On
Versions: 1 2 3 4 5 6 7 8 9 10 11 12 13 14 15 16 17 18 19 20 21 22 23 24 25 26 27 28 29 30 31 32 33 34 35 36 37 38 39 40 41 42 43 44 45 46 47 48 49 50
000
ASUS43 KFSD 230910
RWRFSD

WEATHER ROUNDUP FOR SE SOUTH DAKOTA/SW MINNESOTA/NW IOWA
NATIONAL WEATHER SERVICE SIOUX FALLS SD
300 AM CST THU FEB 23 2017

NOTE: "FAIR" INDICATES FEW OR NO CLOUDS BELOW 12,000 FEET WITH NO
SIGNIFICANT WEATHER AND OR OBSTRUCTIONS TO VISIBILITY.


SDZ038>040-050-052>070-231000-
SOUTHEAST SOUTH DAKOTA

CITY           SKY/WX    TMP DP  RH WIND       PRES   REMARKS
BROOKINGS      CLOUDY    30  25  81 NE16G22   29.86F WCI  19
CHAMBERLAIN    CLOUDY    32  29  88 N12       29.94F WCI  23
HURON          CLOUDY    30  26  85 N12       29.96R WCI  20
MADISON        CLOUDY    28  28 100 NE21G29   29.86F WCI  15
MITCHELL       CLOUDY    32  28  85 N16       29.95R WCI  21
SIOUX FALLS    CLOUDY    32  29  88 N15       29.87S WCI  22
WINNER         CLOUDY    32  27  81 NE15      29.93R WCI  22
YANKTON        CLOUDY    34  28  80 N17       29.87F WCI  23
$$

MNZ071-072-080-081-089-090-097-098-231000-
SOUTHWEST MINNESOTA

CITY           SKY/WX    TMP DP  RH WIND       PRES   REMARKS
FAIRMONT       CLOUDY    35  32  88 N20       29.84S WCI  24
JACKSON          N/A     32  32 100 N9G18     29.85R WCI  24
LUVERNE        CLOUDY    32  28  86 N10G20    29.87R WCI  24
MARSHALL       CLOUDY    32  29  88 N15       29.89F WCI  22
MONTEVIDEO     CLEAR     30  28  93 N9        29.93F WCI  22
PIPESTONE      CLOUDY    30  27  86 NE13G18   29.85S WCI  20
REDWOOD FALLS  CLOUDY    33  26  75 N10G17    29.89R WCI  25
TRACY          CLOUDY    32  31  96 N17       29.87F WCI  21
WINDOM         CLOUDY    34  32  93 N18       29.85S WCI  23
WORTHINGTON    CLOUDY    31  30  96 N13       29.88R FOG     WCI  21
$$

IAZ001>003-012>014-020>022-031-032-NEZ013-014-SDZ071-231000-
NORTHWEST IOWA

CITY           SKY/WX    TMP DP  RH WIND       PRES   REMARKS
CHEROKEE       CLOUDY    35  34  96 N12G21    29.83F WCI  26
DENISON        CLOUDY    36  34  93 NE20      29.80R
ESTHERVILLE    CLOUDY    34  33  96 N14       29.84R WCI  25
LE MARS        CLOUDY    36  32  87 N14G22    29.85F
ORANGE CITY    CLOUDY    34  32  93 NE9       29.85F WCI  26
SHELDON        CLOUDY    32  32 100 N21       29.84F WCI  20
SIOUX CITY     CLOUDY    38  33  82 N16G24    29.85R
SPENCER        CLOUDY    35  33  92 N12       29.88R WCI  27
STORM LAKE     CLOUDY    34  32  93 N22G29    29.81F WCI  22
$$

ABBREVIATIONS USED IN REMARKS
   TC - TEMPERATURE IN CELSIUS
  WCI - WIND CHILL INDEX
   HX - HEAT INDEX
  VSB - VISIBILITY




USA.gov is the U.S. government's official web portal to all federal, state and local government web resources and services.